This is the latest recevied weather packets stored in our database for station/object F4IDZ-11. If no packets are shown the sender has not sent any weather packets the latest 10 day(s).
| Time | Temp. | Humidity | Pressure | Rain* | Wind** | Luminosity | Snow |
|---|---|---|---|---|---|---|---|
| 1778209341 | 12.22° C | 56% | 993.8 hPa | - | - | - | - |
| 1778208441 | 12.22° C | 56% | 993.8 hPa | - | - | - | - |
| 1778207541 | 12.22° C | 56% | 993.7 hPa | - | - | - | - |
| 1778206641 | 12.22° C | 56% | 993.6 hPa | - | - | - | - |
| 1778205740 | 12.22° C | 56% | 993.5 hPa | - | - | - | - |
| 1778204840 | 12.78° C | 56% | 993.6 hPa | - | - | - | - |
| 1778203940 | 12.78° C | 56% | 993.5 hPa | - | - | - | - |
| 1778203040 | 12.78° C | 55% | 993.6 hPa | - | - | - | - |
| 1778202140 | 12.78° C | 55% | 993.7 hPa | - | - | - | - |
| 1778201240 | 13.33° C | 56% | 993.8 hPa | - | - | - | - |
| 1778200339 | 13.33° C | 56% | 993.9 hPa | - | - | - | - |
| 1778199439 | 13.33° C | 55% | 993.9 hPa | - | - | - | - |
| 1778198539 | 13.33° C | 55% | 993.9 hPa | - | - | - | - |
| 1778197639 | 13.89° C | 55% | 994 hPa | - | - | - | - |
| 1778196739 | 13.89° C | 54% | 994.1 hPa | - | - | - | - |
| 1778195838 | 13.89° C | 55% | 994.2 hPa | - | - | - | - |
| 1778194938 | 14.44° C | 55% | 994.2 hPa | - | - | - | - |
| 1778194038 | 14.44° C | 55% | 994.2 hPa | - | - | - | - |
| 1778193138 | 15° C | 54% | 994.3 hPa | - | - | - | - |
| 1778192238 | 15° C | 54% | 994.3 hPa | - | - | - | - |
| 1778191338 | 15° C | 54% | 994.2 hPa | - | - | - | - |
| 1778190438 | 15.56° C | 54% | 994.3 hPa | - | - | - | - |
| 1778189537 | 15.56° C | 54% | 994.3 hPa | - | - | - | - |
| 1778188637 | 16.11° C | 54% | 994.1 hPa | - | - | - | - |
| 1778187737 | 16.67° C | 53% | 994 hPa | - | - | - | - |
* Rain since midnight (hover to see other rain measurements)
** Current wind speed in m/s (hover to see current wind gust speed)